owner,sensor,date,latitude,longitude,vertical_datum,direction_of_sea_water_velocity,sea_water_speed,upward_sea_water_velocity,qcFlag 
TABS,ioos:station:wmo:42044:1,2004-10-01T00:00:00Z,26.1914,-97.0507,2.0,9.587703967,24.07628917,-99999.0,'11111222,11111222,99999999' 
TABS,ioos:station:wmo:42044:1,2004-10-01T00:30:00Z,26.1914,-97.0507,2.0,9.8732919,20.17885031,-99999.0,'11111222,11111222,99999999' 
TABS,ioos:station:wmo:42044:1,2004-10-01T01:00:00Z,26.1914,-97.0507,2.0,6.990747696,19.55537011,-99999.0,'11111222,11111222,99999999' 
TABS,ioos:station:wmo:42044:1,2004-10-01T01:30:00Z,26.1914,-97.0507,2.0,4.377821927,22.92688596,-99999.0,'11111222,11111222,99999999' 
TABS,ioos:station:wmo:42044:1,2004-10-01T02:00:00Z,26.1914,-97.0507,2.0,2.448115103,22.71072434,-99999.0,'11111222,11111222,99999999' 
TABS,ioos:station:wmo:42044:1,2004-10-01T02:30:00Z,26.1914,-97.0507,2.0,351.5157038,15.31764016,-99999.0,'11111222,11111222,99999999' 
TABS,ioos:station:wmo:42044:1,2004-10-01T03:00:00Z,26.1914,-97.0507,2.0,359.3425758,21.78143476,-99999.0,'11111222,11144222,99999999' 
TABS,ioos:station:wmo:42044:1,2004-10-01T03:30:00Z,26.1914,-97.0507,2.0,351.7184402,19.23054341,-99999.0,'11111222,11111222,99999999' 
TABS,ioos:station:wmo:42044:1,2004-10-01T04:00:00Z,26.1914,-97.0507,2.0,345.0466807,18.33076649,-99999.0,'11111222,11111222,99999999' 
TABS,ioos:station:wmo:42044:1,2004-10-01T04:30:00Z,26.1914,-97.0507,2.0,355.8570558,17.02449118,-99999.0,'11111222,11111222,99999999' 
TABS,ioos:station:wmo:42044:1,2004-10-01T05:00:00Z,26.1914,-97.0507,2.0,350.1172599,18.58580641,-99999.0,'11111222,11111222,99999999' 
TABS,ioos:station:wmo:42044:1,2004-10-01T05:30:00Z,26.1914,-97.0507,2.0,352.1288613,14.09278184,-99999.0,'11111222,11111222,99999999' 
TABS,ioos:station:wmo:42044:1,2004-10-01T06:00:00Z,26.1914,-97.0507,2.0,349.2438089,18.27103172,-99999.0,'11111222,11111222,99999999' 
TABS,ioos:station:wmo:42044:1,2004-10-01T06:30:00Z,26.1914,-97.0507,2.0,353.4456132,22.42659136,-99999.0,'11111222,11111222,99999999' 
TABS,ioos:station:wmo:42044:1,2004-10-01T07:00:00Z,26.1914,-97.0507,2.0,354.4381997,21.87298105,-99999.0,'11111222,11111222,99999999' 
TABS,ioos:station:wmo:42044:1,2004-10-01T07:30:00Z,26.1914,-97.0507,2.0,351.0230256,26.01871634,-99999.0,'11111222,11111222,99999999' 
TABS,ioos:station:wmo:42044:1,2004-10-01T08:00:00Z,26.1914,-97.0507,2.0,356.1382062,24.64596722,-99999.0,'11111222,11111222,99999999' 
TABS,ioos:station:wmo:42044:1,2004-10-01T08:30:00Z,26.1914,-97.0507,2.0,348.6629774,24.67141261,-99999.0,'11111222,11111222,99999999' 
TABS,ioos:station:wmo:42044:1,2004-10-01T09:00:00Z,26.1914,-97.0507,2.0,352.8251247,25.54000196,-99999.0,'11111222,11111222,99999999' 
TABS,ioos:station:wmo:42044:1,2004-10-01T09:30:00Z,26.1914,-97.0507,2.0,352.0879802,27.89556416,-99999.0,'11111222,11111222,99999999' 
TABS,ioos:station:wmo:42044:1,2004-10-01T10:00:00Z,26.1914,-97.0507,2.0,354.0268862,26.90608853,-99999.0,'11111222,11111222,99999999' 
TABS,ioos:station:wmo:42044:1,2004-10-01T10:30:00Z,26.1914,-97.0507,2.0,1.437126746,26.7184019,-99999.0,'11111222,11111222,99999999' 
TABS,ioos:station:wmo:42044:1,2004-10-01T11:00:00Z,26.1914,-97.0507,2.0,352.3277142,28.68682276,-99999.0,'11111222,11111222,99999999' 
TABS,ioos:station:wmo:42044:1,2004-10-01T11:30:00Z,26.1914,-97.0507,2.0,0.436211798,28.91083707,-99999.0,'11111222,11111222,99999999' 
TABS,ioos:station:wmo:42044:1,2004-10-01T12:00:00Z,26.1914,-97.0507,2.0,358.6358014,28.13797789,-99999.0,'11111222,11111222,99999999' 
TABS,ioos:station:wmo:42044:1,2004-10-01T12:30:00Z,26.1914,-97.0507,2.0,6.860756907,31.97897591,-99999.0,'11111222,11111222,99999999' 
TABS,ioos:station:wmo:42044:1,2004-10-01T13:00:00Z,26.1914,-97.0507,2.0,7.75765232,33.48645696,-99999.0,'11111222,11111222,99999999' 
TABS,ioos:station:wmo:42044:1,2004-10-01T13:30:00Z,26.1914,-97.0507,2.0,4.588287159,32.25335486,-99999.0,'11111222,11111222,99999999' 
TABS,ioos:station:wmo:42044:1,2004-10-01T14:00:00Z,26.1914,-97.0507,2.0,6.434804197,32.83685886,-99999.0,'11111222,11111222,99999999' 
TABS,ioos:station:wmo:42044:1,2004-10-01T14:30:00Z,26.1914,-97.0507,2.0,5.661313574,34.56859991,-99999.0,'11111222,11111222,99999999' 
TABS,ioos:station:wmo:42044:1,2004-10-01T15:00:00Z,26.1914,-97.0507,2.0,8.378130282,35.96378734,-99999.0,'11111222,11111222,99999999' 
TABS,ioos:station:wmo:42044:1,2004-10-01T15:30:00Z,26.1914,-97.0507,2.0,8.774847923,38.21729713,-99999.0,'11111222,11111222,99999999' 
TABS,ioos:station:wmo:42044:1,2004-10-01T16:00:00Z,26.1914,-97.0507,2.0,8.264069959,41.18766806,-99999.0,'11111222,11111222,99999999' 
TABS,ioos:station:wmo:42044:1,2004-10-01T16:30:00Z,26.1914,-97.0507,2.0,9.107419114,41.38166381,-99999.0,'11111222,11111222,99999999' 
TABS,ioos:station:wmo:42044:1,2004-10-01T17:00:00Z,26.1914,-97.0507,2.0,9.542703452,42.28510494,-99999.0,'11111222,11111222,99999999' 
TABS,ioos:station:wmo:42044:1,2004-10-01T17:30:00Z,26.1914,-97.0507,2.0,9.833394345,42.15935958,-99999.0,'11111222,11111222,99999999' 
TABS,ioos:station:wmo:42044:1,2004-10-01T18:00:00Z,26.1914,-97.0507,2.0,17.74753747,56.65628385,-99999.0,'11111222,11111222,99999999' 
TABS,ioos:station:wmo:42044:1,2004-10-01T18:30:00Z,26.1914,-97.0507,2.0,12.56624221,56.71864949,-99999.0,'11111222,11111222,99999999' 
TABS,ioos:station:wmo:42044:1,2004-10-01T19:00:00Z,26.1914,-97.0507,2.0,13.2574736,52.80731105,-99999.0,'11111222,11111222,99999999' 
TABS,ioos:station:wmo:42044:1,2004-10-01T19:30:00Z,26.1914,-97.0507,2.0,11.88193657,51.28888476,-99999.0,'11111222,11111222,99999999' 
TABS,ioos:station:wmo:42044:1,2004-10-01T20:00:00Z,26.1914,-97.0507,2.0,10.04564736,49.59023493,-99999.0,'11111222,11111222,99999999' 
TABS,ioos:station:wmo:42044:1,2004-10-01T20:30:00Z,26.1914,-97.0507,2.0,12.25945146,48.64936279,-99999.0,'11111222,11111222,99999999' 
TABS,ioos:station:wmo:42044:1,2004-10-01T21:00:00Z,26.1914,-97.0507,2.0,10.01200854,43.19782055,-99999.0,'11111222,11111222,99999999' 
TABS,ioos:station:wmo:42044:1,2004-10-01T22:00:00Z,26.1914,-97.0507,2.0,16.17621017,53.91445817,-99999.0,'11111222,11111222,99999999' 
TABS,ioos:station:wmo:42044:1,2004-10-01T22:30:00Z,26.1914,-97.0507,2.0,21.58311985,63.80352498,-99999.0,'11111222,11111222,99999999' 
TABS,ioos:station:wmo:42044:1,2004-10-01T23:00:00Z,26.1914,-97.0507,2.0,18.72002141,74.40615096,-99999.0,'11111222,11111222,99999999' 
TABS,ioos:station:wmo:42044:1,2004-10-01T23:30:00Z,26.1914,-97.0507,2.0,21.3312271,79.17387511,-99999.0,'11111222,11111222,99999999' 
TABS,ioos:station:wmo:42044:1,2004-10-02T00:00:00Z,26.1914,-97.0507,2.0,20.48145279,76.25003148,-99999.0,'11111222,11111222,99999999' 
TABS,ioos:station:wmo:42044:1,2004-10-02T00:30:00Z,26.1914,-97.0507,2.0,19.21738315,50.49363128,-99999.0,'11111222,11111222,99999999' 
TABS,ioos:station:wmo:42044:1,2004-10-02T01:00:00Z,26.1914,-97.0507,2.0,22.82418104,54.83342503,-99999.0,'11111222,11111222,99999999' 
TABS,ioos:station:wmo:42044:1,2004-10-02T01:30:00Z,26.1914,-97.0507,2.0,17.29358997,74.44530408,-99999.0,'11111222,11111222,99999999' 
TABS,ioos:station:wmo:42044:1,2004-10-02T02:00:00Z,26.1914,-97.0507,2.0,17.67953392,75.53757012,-99999.0,'11111222,11111222,99999999' 
TABS,ioos:station:wmo:42044:1,2004-10-02T02:30:00Z,26.1914,-97.0507,2.0,17.08097573,74.93528541,-99999.0,'11111222,11111222,99999999' 
TABS,ioos:station:wmo:42044:1,2004-10-02T03:00:00Z,26.1914,-97.0507,2.0,17.31589133,74.95711907,-99999.0,'11111222,11111222,99999999' 
TABS,ioos:station:wmo:42044:1,2004-10-02T03:30:00Z,26.1914,-97.0507,2.0,16.62263124,72.18664281,-99999.0,'11111222,11111222,99999999' 
TABS,ioos:station:wmo:42044:1,2004-10-02T04:00:00Z,26.1914,-97.0507,2.0,12.69739492,69.74561277,-99999.0,'11111222,11111222,99999999' 
TABS,ioos:station:wmo:42044:1,2004-10-02T04:30:00Z,26.1914,-97.0507,2.0,13.47747627,70.11068392,-99999.0,'11111222,11111222,99999999' 
TABS,ioos:station:wmo:42044:1,2004-10-02T05:00:00Z,26.1914,-97.0507,2.0,11.87303838,57.88843235,-99999.0,'11111222,11111222,99999999' 
TABS,ioos:station:wmo:42044:1,2004-10-02T05:30:00Z,26.1914,-97.0507,2.0,6.955049629,58.47023174,-99999.0,'11111222,11111222,99999999' 
TABS,ioos:station:wmo:42044:1,2004-10-02T06:00:00Z,26.1914,-97.0507,2.0,4.401314223,54.73138862,-99999.0,'11111222,11111222,99999999' 
TABS,ioos:station:wmo:42044:1,2004-10-02T06:30:00Z,26.1914,-97.0507,2.0,2.844711187,47.9590909,-99999.0,'11111222,11111222,99999999' 
TABS,ioos:station:wmo:42044:1,2004-10-02T07:00:00Z,26.1914,-97.0507,2.0,6.686252243,50.67463764,-99999.0,'11111222,11111222,99999999' 
TABS,ioos:station:wmo:42044:1,2004-10-02T07:30:00Z,26.1914,-97.0507,2.0,350.2726547,47.58415282,-99999.0,'11111222,11111222,99999999' 
TABS,ioos:station:wmo:42044:1,2004-10-02T08:00:00Z,26.1914,-97.0507,2.0,356.66214,48.60246187,-99999.0,'11111222,11111222,99999999' 
TABS,ioos:station:wmo:42044:1,2004-10-02T08:30:00Z,26.1914,-97.0507,2.0,4.734575788,50.40196921,-99999.0,'11111222,11111222,99999999' 
TABS,ioos:station:wmo:42044:1,2004-10-02T09:00:00Z,26.1914,-97.0507,2.0,358.7057379,52.23333036,-99999.0,'11111222,11111222,99999999' 
TABS,ioos:station:wmo:42044:1,2004-10-02T09:30:00Z,26.1914,-97.0507,2.0,4.258352272,52.52498834,-99999.0,'11111222,11111222,99999999' 
TABS,ioos:station:wmo:42044:1,2004-10-02T10:00:00Z,26.1914,-97.0507,2.0,1.958560023,51.20991017,-99999.0,'11111222,11111222,99999999' 
TABS,ioos:station:wmo:42044:1,2004-10-02T10:30:00Z,26.1914,-97.0507,2.0,4.68577938,58.51556032,-99999.0,'11111222,11111222,99999999' 
TABS,ioos:station:wmo:42044:1,2004-10-02T11:00:00Z,26.1914,-97.0507,2.0,7.782185233,52.14018796,-99999.0,'11111222,11111222,99999999' 
TABS,ioos:station:wmo:42044:1,2004-10-02T11:30:00Z,26.1914,-97.0507,2.0,359.8177409,56.52028662,-99999.0,'11111222,11144222,99999999' 
TABS,ioos:station:wmo:42044:1,2004-10-02T12:00:00Z,26.1914,-97.0507,2.0,0.283382678,48.56059308,-99999.0,'11111222,11111222,99999999' 
TABS,ioos:station:wmo:42044:1,2004-10-02T12:30:00Z,26.1914,-97.0507,2.0,0.54796892,70.0832027,-99999.0,'11111222,11111222,99999999' 
TABS,ioos:station:wmo:42044:1,2004-10-02T13:00:00Z,26.1914,-97.0507,2.0,359.4394356,72.54347455,-99999.0,'11111222,11144222,99999999' 
TABS,ioos:station:wmo:42044:1,2004-10-02T13:30:00Z,26.1914,-97.0507,2.0,359.2089937,72.41690479,-99999.0,'11111222,11144222,99999999' 
TABS,ioos:station:wmo:42044:1,2004-10-02T14:00:00Z,26.1914,-97.0507,2.0,356.9024507,70.87356207,-99999.0,'11111222,11111222,99999999' 
TABS,ioos:station:wmo:42044:1,2004-10-02T14:30:00Z,26.1914,-97.0507,2.0,357.1283601,72.65124362,-99999.0,'11111222,11111222,99999999' 
TABS,ioos:station:wmo:42044:1,2004-10-02T15:00:00Z,26.1914,-97.0507,2.0,355.754717,69.70126039,-99999.0,'11111222,11111222,99999999' 
TABS,ioos:station:wmo:42044:1,2004-10-02T15:30:00Z,26.1914,-97.0507,2.0,354.6831235,72.73296364,-99999.0,'11111222,11111222,99999999' 
TABS,ioos:station:wmo:42044:1,2004-10-02T16:00:00Z,26.1914,-97.0507,2.0,352.4312504,75.23552685,-99999.0,'11111222,11111222,99999999' 
TABS,ioos:station:wmo:42044:1,2004-10-02T16:30:00Z,26.1914,-97.0507,2.0,350.8115082,74.01984396,-99999.0,'11111222,11111222,99999999' 
TABS,ioos:station:wmo:42044:1,2004-10-02T17:00:00Z,26.1914,-97.0507,2.0,348.6751908,74.34762942,-99999.0,'11111222,11111222,99999999' 
TABS,ioos:station:wmo:42044:1,2004-10-02T17:30:00Z,26.1914,-97.0507,2.0,348.0722446,77.26836934,-99999.0,'11111222,11111222,99999999' 
TABS,ioos:station:wmo:42044:1,2004-10-02T18:00:00Z,26.1914,-97.0507,2.0,347.0062183,72.27059499,-99999.0,'11111222,11111222,99999999' 
TABS,ioos:station:wmo:42044:1,2004-10-02T18:30:00Z,26.1914,-97.0507,2.0,347.9837829,76.65978085,-99999.0,'11111222,11111222,99999999' 
TABS,ioos:station:wmo:42044:1,2004-10-02T19:00:00Z,26.1914,-97.0507,2.0,343.249421,75.53516929,-99999.0,'11111222,11111222,99999999' 
TABS,ioos:station:wmo:42044:1,2004-10-02T19:30:00Z,26.1914,-97.0507,2.0,343.3445397,76.89623203,-99999.0,'11111222,11111222,99999999' 
TABS,ioos:station:wmo:42044:1,2004-10-02T20:00:00Z,26.1914,-97.0507,2.0,340.7343518,73.91968953,-99999.0,'11111222,11111222,99999999' 
TABS,ioos:station:wmo:42044:1,2004-10-02T20:30:00Z,26.1914,-97.0507,2.0,347.1682156,63.12656255,-99999.0,'11111222,11111222,99999999' 
TABS,ioos:station:wmo:42044:1,2004-10-02T21:00:00Z,26.1914,-97.0507,2.0,345.4495166,61.85392874,-99999.0,'11111222,11111222,99999999' 
TABS,ioos:station:wmo:42044:1,2004-10-02T21:30:00Z,26.1914,-97.0507,2.0,350.5780932,56.25899128,-99999.0,'11111222,11111222,99999999' 
TABS,ioos:station:wmo:42044:1,2004-10-02T22:00:00Z,26.1914,-97.0507,2.0,352.4692796,51.12095852,-99999.0,'11111222,11111222,99999999' 
TABS,ioos:station:wmo:42044:1,2004-10-02T22:30:00Z,26.1914,-97.0507,2.0,353.4174584,53.21080341,-99999.0,'11111222,11111222,99999999' 
TABS,ioos:station:wmo:42044:1,2004-10-02T23:00:00Z,26.1914,-97.0507,2.0,354.6535163,44.96564244,-99999.0,'11111222,11111222,99999999' 
TABS,ioos:station:wmo:42044:1,2004-10-02T23:30:00Z,26.1914,-97.0507,2.0,355.1389925,44.36960333,-99999.0,'11111222,11111222,99999999' 
TABS,ioos:station:wmo:42044:1,2004-10-03T00:00:00Z,26.1914,-97.0507,2.0,353.9563098,37.80011243,-99999.0,'11111222,11111222,99999999' 
TABS,ioos:station:wmo:42044:1,2004-10-03T00:30:00Z,26.1914,-97.0507,2.0,349.4150356,34.7310236,-99999.0,'11111222,11111222,99999999' 
TABS,ioos:station:wmo:42044:1,2004-10-03T01:00:00Z,26.1914,-97.0507,2.0,351.7788012,28.39178754,-99999.0,'11111222,11111222,99999999' 
TABS,ioos:station:wmo:42044:1,2004-10-03T01:30:00Z,26.1914,-97.0507,2.0,345.2753066,39.14565238,-99999.0,'11111222,11111222,99999999' 
TABS,ioos:station:wmo:42044:1,2004-10-03T02:00:00Z,26.1914,-97.0507,2.0,342.9172416,34.17792416,-99999.0,'11111222,11111222,99999999' 
TABS,ioos:station:wmo:42044:1,2004-10-03T02:30:00Z,26.1914,-97.0507,2.0,342.5044935,34.72647405,-99999.0,'11111222,11111222,99999999' 
TABS,ioos:station:wmo:42044:1,2004-10-03T03:00:00Z,26.1914,-97.0507,2.0,339.2003784,34.10258788,-99999.0,'11111222,11111222,99999999' 
TABS,ioos:station:wmo:42044:1,2004-10-03T03:30:00Z,26.1914,-97.0507,2.0,332.5767737,31.93910769,-99999.0,'11111222,11111222,99999999' 
TABS,ioos:station:wmo:42044:1,2004-10-03T04:00:00Z,26.1914,-97.0507,2.0,332.7002164,33.81660243,-99999.0,'11111222,11111222,99999999' 
TABS,ioos:station:wmo:42044:1,2004-10-03T04:30:00Z,26.1914,-97.0507,2.0,334.5458845,32.99267343,-99999.0,'11111222,11111222,99999999' 
TABS,ioos:station:wmo:42044:1,2004-10-03T05:00:00Z,26.1914,-97.0507,2.0,331.1483813,29.92453341,-99999.0,'11111222,11111222,99999999' 
TABS,ioos:station:wmo:42044:1,2004-10-03T05:30:00Z,26.1914,-97.0507,2.0,325.1932499,24.61395133,-99999.0,'11111222,11111222,99999999' 
TABS,ioos:station:wmo:42044:1,2004-10-03T06:00:00Z,26.1914,-97.0507,2.0,327.6022468,25.83063491,-99999.0,'11111222,11111222,99999999' 
TABS,ioos:station:wmo:42044:1,2004-10-03T06:30:00Z,26.1914,-97.0507,2.0,329.8419348,27.32928466,-99999.0,'11111222,11111222,99999999' 
TABS,ioos:station:wmo:42044:1,2004-10-03T07:00:00Z,26.1914,-97.0507,2.0,331.3727017,26.71595965,-99999.0,'11111222,11111222,99999999' 
TABS,ioos:station:wmo:42044:1,2004-10-03T07:30:00Z,26.1914,-97.0507,2.0,327.5870856,25.7639011,-99999.0,'11111222,11111222,99999999' 
TABS,ioos:station:wmo:42044:1,2004-10-03T08:00:00Z,26.1914,-97.0507,2.0,326.9649464,33.4949847,-99999.0,'11111222,11111222,99999999' 
TABS,ioos:station:wmo:42044:1,2004-10-03T08:30:00Z,26.1914,-97.0507,2.0,327.1995336,26.26821844,-99999.0,'11111222,11111222,99999999' 
TABS,ioos:station:wmo:42044:1,2004-10-03T09:00:00Z,26.1914,-97.0507,2.0,329.7825813,25.55202536,-99999.0,'11111222,11111222,99999999' 
TABS,ioos:station:wmo:42044:1,2004-10-03T09:30:00Z,26.1914,-97.0507,2.0,327.9436621,26.07595828,-99999.0,'11111222,11111222,99999999' 
TABS,ioos:station:wmo:42044:1,2004-10-03T10:00:00Z,26.1914,-97.0507,2.0,321.7451271,22.9987217,-99999.0,'11111222,11111222,99999999' 
TABS,ioos:station:wmo:42044:1,2004-10-03T10:30:00Z,26.1914,-97.0507,2.0,320.9147722,26.69395624,-99999.0,'11111222,11111222,99999999' 
TABS,ioos:station:wmo:42044:1,2004-10-03T11:00:00Z,26.1914,-97.0507,2.0,326.844493,30.04109519,-99999.0,'11111222,11111222,99999999' 
TABS,ioos:station:wmo:42044:1,2004-10-03T11:30:00Z,26.1914,-97.0507,2.0,328.5646313,31.2343817,-99999.0,'11111222,11111222,99999999' 
TABS,ioos:station:wmo:42044:1,2004-10-03T12:00:00Z,26.1914,-97.0507,2.0,341.6067761,30.58239526,-99999.0,'11111222,11111222,99999999' 
TABS,ioos:station:wmo:42044:1,2004-10-03T12:30:00Z,26.1914,-97.0507,2.0,342.877453,31.48556812,-99999.0,'11111222,11111222,99999999' 
TABS,ioos:station:wmo:42044:1,2004-10-03T13:00:00Z,26.1914,-97.0507,2.0,337.9113081,25.90111195,-99999.0,'11111222,11111222,99999999' 
TABS,ioos:station:wmo:42044:1,2004-10-03T13:30:00Z,26.1914,-97.0507,2.0,339.7376619,23.9949203,-99999.0,'11111222,11111222,99999999' 
TABS,ioos:station:wmo:42044:1,2004-10-03T14:00:00Z,26.1914,-97.0507,2.0,340.2046848,26.10247498,-99999.0,'11111222,11111222,99999999' 
TABS,ioos:station:wmo:42044:1,2004-10-03T14:30:00Z,26.1914,-97.0507,2.0,340.1635041,26.75771478,-99999.0,'11111222,11111222,99999999' 
TABS,ioos:station:wmo:42044:1,2004-10-03T15:00:00Z,26.1914,-97.0507,2.0,340.051982,26.70209917,-99999.0,'11111222,11111222,99999999' 
TABS,ioos:station:wmo:42044:1,2004-10-03T15:30:00Z,26.1914,-97.0507,2.0,348.252677,25.93319302,-99999.0,'11111222,11111222,99999999' 
TABS,ioos:station:wmo:42044:1,2004-10-03T16:00:00Z,26.1914,-97.0507,2.0,341.4757104,24.26734843,-99999.0,'11111222,11111222,99999999' 
TABS,ioos:station:wmo:42044:1,2004-10-03T16:30:00Z,26.1914,-97.0507,2.0,345.6976988,24.00401008,-99999.0,'11111222,11111222,99999999' 
TABS,ioos:station:wmo:42044:1,2004-10-03T17:00:00Z,26.1914,-97.0507,2.0,343.2049609,26.85557112,-99999.0,'11111222,11111222,99999999' 
TABS,ioos:station:wmo:42044:1,2004-10-03T17:30:00Z,26.1914,-97.0507,2.0,341.8899625,25.67178217,-99999.0,'11111222,11111222,99999999' 
TABS,ioos:station:wmo:42044:1,2004-10-03T18:00:00Z,26.1914,-97.0507,2.0,339.206427,23.9714038,-99999.0,'11111222,11111222,99999999' 
TABS,ioos:station:wmo:42044:1,2004-10-03T18:30:00Z,26.1914,-97.0507,2.0,329.7521877,24.71487406,-99999.0,'11111222,11111222,99999999' 
TABS,ioos:station:wmo:42044:1,2004-10-03T19:00:00Z,26.1914,-97.0507,2.0,325.9485116,21.9665655,-99999.0,'11111222,11111222,99999999' 
TABS,ioos:station:wmo:42044:1,2004-10-03T19:30:00Z,26.1914,-97.0507,2.0,326.1360023,20.97885841,-99999.0,'11111222,11111222,99999999' 
TABS,ioos:station:wmo:42044:1,2004-10-03T20:00:00Z,26.1914,-97.0507,2.0,321.4146945,22.91227182,-99999.0,'11111222,11111222,99999999' 
TABS,ioos:station:wmo:42044:1,2004-10-03T20:30:00Z,26.1914,-97.0507,2.0,318.8694912,20.53876822,-99999.0,'11111222,11111222,99999999' 
TABS,ioos:station:wmo:42044:1,2004-10-03T21:00:00Z,26.1914,-97.0507,2.0,320.6803947,21.1473308,-99999.0,'11111222,11111222,99999999' 
TABS,ioos:station:wmo:42044:1,2004-10-03T21:30:00Z,26.1914,-97.0507,2.0,316.8352873,22.74514674,-99999.0,'11111222,11111222,99999999' 
TABS,ioos:station:wmo:42044:1,2004-10-03T22:00:00Z,26.1914,-97.0507,2.0,316.829495,21.26646656,-99999.0,'11111222,11111222,99999999' 
TABS,ioos:station:wmo:42044:1,2004-10-03T22:30:00Z,26.1914,-97.0507,2.0,317.4365962,23.78736009,-99999.0,'11111222,11111222,99999999' 
TABS,ioos:station:wmo:42044:1,2004-10-03T23:00:00Z,26.1914,-97.0507,2.0,314.3237671,22.75628265,-99999.0,'11111222,11111222,99999999' 
TABS,ioos:station:wmo:42044:1,2004-10-03T23:30:00Z,26.1914,-97.0507,2.0,322.9327569,22.03213108,-99999.0,'11111222,11111222,99999999' 
TABS,ioos:station:wmo:42044:1,2004-10-04T00:00:00Z,26.1914,-97.0507,2.0,317.1532734,24.46902532,-99999.0,'11111222,11111222,99999999' 
TABS,ioos:station:wmo:42044:1,2004-10-04T00:30:00Z,26.1914,-97.0507,2.0,325.0412724,19.9130736,-99999.0,'11111222,11111222,99999999' 
TABS,ioos:station:wmo:42044:1,2004-10-04T01:00:00Z,26.1914,-97.0507,2.0,330.1148824,20.23012605,-99999.0,'11111222,11111222,99999999' 
TABS,ioos:station:wmo:42044:1,2004-10-04T01:30:00Z,26.1914,-97.0507,2.0,325.4255701,24.07131072,-99999.0,'11111222,11111222,99999999' 
TABS,ioos:station:wmo:42044:1,2004-10-04T02:00:00Z,26.1914,-97.0507,2.0,333.669246,25.18280763,-99999.0,'11111222,11111222,99999999' 
TABS,ioos:station:wmo:42044:1,2004-10-04T02:30:00Z,26.1914,-97.0507,2.0,331.4233651,27.26105647,-99999.0,'11111222,11111222,99999999' 
TABS,ioos:station:wmo:42044:1,2004-10-04T03:00:00Z,26.1914,-97.0507,2.0,337.7178822,32.51825641,-99999.0,'11111222,11111222,99999999' 
TABS,ioos:station:wmo:42044:1,2004-10-04T03:30:00Z,26.1914,-97.0507,2.0,330.8185451,28.01583838,-99999.0,'11111222,11111222,99999999' 
TABS,ioos:station:wmo:42044:1,2004-10-04T04:00:00Z,26.1914,-97.0507,2.0,334.811317,27.56077829,-99999.0,'11111222,11111222,99999999' 
TABS,ioos:station:wmo:42044:1,2004-10-04T04:30:00Z,26.1914,-97.0507,2.0,332.2758138,27.40638794,-99999.0,'11111222,11111222,99999999' 
TABS,ioos:station:wmo:42044:1,2004-10-04T05:00:00Z,26.1914,-97.0507,2.0,326.1357744,22.77332211,-99999.0,'11111222,11111222,99999999' 
TABS,ioos:station:wmo:42044:1,2004-10-04T05:30:00Z,26.1914,-97.0507,2.0,327.6918748,26.4557971,-99999.0,'11111222,11111222,99999999' 
TABS,ioos:station:wmo:42044:1,2004-10-04T06:00:00Z,26.1914,-97.0507,2.0,334.472804,24.20269613,-99999.0,'11111222,11111222,99999999' 
TABS,ioos:station:wmo:42044:1,2004-10-04T06:30:00Z,26.1914,-97.0507,2.0,331.7608608,28.46835612,-99999.0,'11111222,11111222,99999999' 
TABS,ioos:station:wmo:42044:1,2004-10-04T07:00:00Z,26.1914,-97.0507,2.0,334.8154622,28.03501026,-99999.0,'11111222,11111222,99999999' 
TABS,ioos:station:wmo:42044:1,2004-10-04T07:30:00Z,26.1914,-97.0507,2.0,330.4754171,27.45529093,-99999.0,'11111222,11111222,99999999' 
TABS,ioos:station:wmo:42044:1,2004-10-04T08:00:00Z,26.1914,-97.0507,2.0,337.7379657,27.24053046,-99999.0,'11111222,11111222,99999999' 
TABS,ioos:station:wmo:42044:1,2004-10-04T08:30:00Z,26.1914,-97.0507,2.0,333.0464178,30.97472679,-99999.0,'11111222,11111222,99999999' 
TABS,ioos:station:wmo:42044:1,2004-10-04T09:00:00Z,26.1914,-97.0507,2.0,338.198852,32.36484049,-99999.0,'11111222,11111222,99999999' 
TABS,ioos:station:wmo:42044:1,2004-10-04T09:30:00Z,26.1914,-97.0507,2.0,340.2708516,35.69541287,-99999.0,'11111222,11111222,99999999' 
TABS,ioos:station:wmo:42044:1,2004-10-04T10:00:00Z,26.1914,-97.0507,2.0,344.2967023,33.84319725,-99999.0,'11111222,11111222,99999999' 
TABS,ioos:station:wmo:42044:1,2004-10-04T10:30:00Z,26.1914,-97.0507,2.0,343.4382579,33.18686035,-99999.0,'11111222,11111222,99999999' 
TABS,ioos:station:wmo:42044:1,2004-10-04T11:00:00Z,26.1914,-97.0507,2.0,353.3284807,37.78588361,-99999.0,'11111222,11111222,99999999' 
TABS,ioos:station:wmo:42044:1,2004-10-04T11:30:00Z,26.1914,-97.0507,2.0,352.5951509,30.95819924,-99999.0,'11111222,11111222,99999999' 
TABS,ioos:station:wmo:42044:1,2004-10-04T12:00:00Z,26.1914,-97.0507,2.0,359.8174915,21.95011162,-99999.0,'11111222,11144222,99999999' 
TABS,ioos:station:wmo:42044:1,2004-10-04T12:30:00Z,26.1914,-97.0507,2.0,356.7971905,39.73206891,-99999.0,'11111222,11111222,99999999' 
TABS,ioos:station:wmo:42044:1,2004-10-04T13:00:00Z,26.1914,-97.0507,2.0,3.387171616,42.65450504,-99999.0,'11111222,11111222,99999999' 
TABS,ioos:station:wmo:42044:1,2004-10-04T13:30:00Z,26.1914,-97.0507,2.0,0.834487701,41.89444116,-99999.0,'11111222,11111222,99999999' 
TABS,ioos:station:wmo:42044:1,2004-10-04T14:00:00Z,26.1914,-97.0507,2.0,3.114883452,40.4898123,-99999.0,'11111222,11111222,99999999' 
TABS,ioos:station:wmo:42044:1,2004-10-04T14:30:00Z,26.1914,-97.0507,2.0,1.3775146,40.77177946,-99999.0,'11111222,11111222,99999999' 
TABS,ioos:station:wmo:42044:1,2004-10-04T15:00:00Z,26.1914,-97.0507,2.0,0.238532053,40.87035356,-99999.0,'11111222,11111222,99999999' 
TABS,ioos:station:wmo:42044:1,2004-10-04T15:30:00Z,26.1914,-97.0507,2.0,358.581751,42.01287422,-99999.0,'11111222,11111222,99999999' 
TABS,ioos:station:wmo:42044:1,2004-10-04T16:00:00Z,26.1914,-97.0507,2.0,358.0804854,39.70228331,-99999.0,'11111222,11111222,99999999' 
TABS,ioos:station:wmo:42044:1,2004-10-04T16:30:00Z,26.1914,-97.0507,2.0,357.9719894,39.27460503,-99999.0,'11111222,11111222,99999999' 